Time,TemperatureF,DewpointF,PressureIn,WindDirection,WindDirectionDegrees,WindSpeedMPH,WindSpeedGustMPH,Humidity,HourlyPrecipIn,Conditions,Clouds,dailyrainin,SoftwareType,DateUTC
2013-01-17 00:04:00,37.0,33.8,30.55,NW,325,6.0,6.0,88,0.00,,,0.00,meteohub,2013-01-17 08:04:00,
2013-01-17 00:10:00,37.0,33.8,30.55,NNW,330,2.0,6.0,88,0.00,,,0.00,meteohub,2013-01-17 08:10:00,
2013-01-17 00:15:00,37.0,33.8,30.55,NNW,336,5.0,7.0,88,0.00,,,0.00,meteohub,2013-01-17 08:15:00,
2013-01-17 00:20:00,37.0,33.8,30.55,NNW,346,4.0,7.0,88,0.00,,,0.00,meteohub,2013-01-17 08:20:00,
2013-01-17 00:25:00,37.0,33.8,30.54,North,350,2.0,7.0,88,0.00,,,0.00,meteohub,2013-01-17 08:25:00,
2013-01-17 00:30:00,37.0,33.8,30.54,NNW,345,5.0,7.0,88,0.00,,,0.00,meteohub,2013-01-17 08:30:00,
2013-01-17 00:35:00,37.0,33.8,30.54,NW,309,2.0,7.0,88,0.00,,,0.00,meteohub,2013-01-17 08:35:00,
2013-01-17 00:41:00,36.9,33.4,30.54,NW,325,5.0,7.0,87,0.00,,,0.00,meteohub,2013-01-17 08:41:00,
2013-01-17 00:46:00,36.9,33.4,30.54,NNW,333,5.0,7.0,87,0.00,,,0.00,meteohub,2013-01-17 08:46:00,
2013-01-17 00:51:00,36.9,33.6,30.54,NNW,333,2.0,6.0,88,0.00,,,0.00,meteohub,2013-01-17 08:51:00,
2013-01-17 00:56:00,36.9,33.6,30.54,NW,323,2.0,6.0,88,0.00,,,0.00,meteohub,2013-01-17 08:56:00,
2013-01-17 01:01:00,36.9,33.6,30.54,NNW,339,4.0,6.0,88,0.00,,,0.00,meteohub,2013-01-17 09:01:00,
2013-01-17 01:06:00,36.9,33.4,30.54,NNW,340,4.0,7.0,87,0.00,,,0.00,meteohub,2013-01-17 09:06:00,
2013-01-17 01:11:00,36.9,33.4,30.54,NNW,342,4.0,7.0,87,0.00,,,0.00,meteohub,2013-01-17 09:11:00,
2013-01-17 01:16:00,36.9,33.4,30.54,NNW,342,2.0,6.0,87,0.00,,,0.00,meteohub,2013-01-17 09:16:00,
2013-01-17 01:22:00,36.9,33.6,30.54,NNW,344,2.0,6.0,88,0.00,,,0.00,meteohub,2013-01-17 09:22:00,
2013-01-17 01:27:00,36.9,33.6,30.54,NNW,348,2.0,6.0,88,0.00,,,0.00,meteohub,2013-01-17 09:27:00,
2013-01-17 01:32:00,36.9,33.6,30.54,NNE,22,4.0,6.0,88,0.00,,,0.00,meteohub,2013-01-17 09:32:00,
2013-01-17 01:37:00,36.9,33.6,30.54,NNW,340,2.0,5.0,88,0.00,,,0.00,meteohub,2013-01-17 09:37:00,
2013-01-17 01:42:00,36.7,33.4,30.53,North,349,2.0,5.0,88,0.00,,,0.00,meteohub,2013-01-17 09:42:00,
2013-01-17 01:47:00,36.7,33.4,30.53,North,349,2.0,5.0,88,0.00,,,0.00,meteohub,2013-01-17 09:47:00,
2013-01-17 01:52:00,36.7,33.4,30.53,North,5,2.0,5.0,88,0.00,,,0.00,meteohub,2013-01-17 09:52:00,
2013-01-17 01:57:00,36.7,33.4,30.53,North,5,1.0,5.0,88,0.00,,,0.00,meteohub,2013-01-17 09:57:00,
2013-01-17 02:02:00,36.5,33.1,30.53,North,0,2.0,5.0,87,0.00,,,0.00,meteohub,2013-01-17 10:02:00,
2013-01-17 02:07:00,36.3,32.9,30.53,North,355,4.0,4.0,87,0.00,,,0.00,meteohub,2013-01-17 10:07:00,
2013-01-17 02:12:00,36.3,32.9,30.52,NW,321,4.0,4.0,87,0.00,,,0.00,meteohub,2013-01-17 10:12:00,
2013-01-17 02:17:00,36.3,32.9,30.53,NNW,346,1.0,5.0,87,0.00,,,0.00,meteohub,2013-01-17 10:17:00,
2013-01-17 02:22:00,36.3,32.9,30.53,NNW,344,1.0,5.0,87,0.00,,,0.00,meteohub,2013-01-17 10:22:00,
2013-01-17 02:27:00,36.3,32.9,30.53,NNW,332,2.0,6.0,87,0.00,,,0.00,meteohub,2013-01-17 10:27:00,
2013-01-17 02:33:00,36.3,33.1,30.53,NW,325,4.0,6.0,88,0.00,,,0.00,meteohub,2013-01-17 10:33:00,
2013-01-17 02:38:00,36.3,33.1,30.53,NW,326,2.0,6.0,88,0.00,,,0.00,meteohub,2013-01-17 10:38:00,
2013-01-17 02:43:00,36.3,33.1,30.53,NW,326,5.0,5.0,88,0.00,,,0.00,meteohub,2013-01-17 10:43:00,
2013-01-17 02:48:00,36.1,32.9,30.53,NW,326,4.0,5.0,88,0.00,,,0.00,meteohub,2013-01-17 10:48:00,
2013-01-17 02:53:00,36.1,32.9,30.53,NNW,332,4.0,6.0,88,0.00,,,0.00,meteohub,2013-01-17 10:53:00,
2013-01-17 02:58:00,36.1,32.9,30.52,NNW,331,5.0,6.0,88,0.00,,,0.00,meteohub,2013-01-17 10:58:00,
2013-01-17 03:03:00,36.0,32.7,30.53,NNW,329,2.0,7.0,88,0.00,,,0.00,meteohub,2013-01-17 11:03:00,
2013-01-17 03:09:00,36.0,33.1,30.52,NNW,340,1.0,7.0,89,0.00,,,0.00,meteohub,2013-01-17 11:09:00,
2013-01-17 03:14:00,36.0,33.1,30.52,NNW,333,5.0,7.0,89,0.00,,,0.00,meteohub,2013-01-17 11:14:00,
2013-01-17 03:19:00,35.8,32.9,30.52,NW,325,5.0,6.0,89,0.00,,,0.00,meteohub,2013-01-17 11:19:00,
2013-01-17 03:24:00,35.6,32.7,30.52,NNW,333,7.0,7.0,89,0.00,,,0.00,meteohub,2013-01-17 11:24:00,
2013-01-17 03:29:00,35.4,32.5,30.52,NNW,335,4.0,8.0,89,0.00,,,0.00,meteohub,2013-01-17 11:29:00,
2013-01-17 03:34:00,35.2,32.4,30.51,NW,325,4.0,8.0,89,0.00,,,0.00,meteohub,2013-01-17 11:34:00,
2013-01-17 03:39:00,35.2,32.4,30.51,North,5,4.0,8.0,89,0.00,,,0.00,meteohub,2013-01-17 11:39:00,
2013-01-17 03:45:00,35.1,32.2,30.50,NW,321,2.0,8.0,89,0.00,,,0.00,meteohub,2013-01-17 11:45:00,
2013-01-17 03:50:00,35.1,32.2,30.51,NNW,330,7.0,8.0,89,0.00,,,0.00,meteohub,2013-01-17 11:50:00,
2013-01-17 03:55:00,35.1,32.2,30.50,NNW,335,6.0,8.0,89,0.00,,,0.00,meteohub,2013-01-17 11:55:00,
2013-01-17 04:00:00,35.1,32.4,30.50,NW,321,5.0,8.0,90,0.00,,,0.00,meteohub,2013-01-17 12:00:00,
2013-01-17 04:05:00,34.9,32.0,30.50,NNW,333,6.0,8.0,89,0.00,,,0.00,meteohub,2013-01-17 12:05:00,
2013-01-17 04:10:00,34.7,31.8,30.50,NNW,327,5.0,8.0,89,0.00,,,0.00,meteohub,2013-01-17 12:10:00,
2013-01-17 04:15:00,34.7,32.0,30.49,NW,315,6.0,9.0,90,0.00,,,0.00,meteohub,2013-01-17 12:15:00,
2013-01-17 04:20:00,34.5,31.8,30.49,NNW,331,8.0,9.0,90,0.00,,,0.00,meteohub,2013-01-17 12:20:00,
2013-01-17 04:25:00,34.5,31.8,30.49,NW,320,6.0,9.0,90,0.00,,,0.00,meteohub,2013-01-17 12:25:00,
2013-01-17 04:30:00,34.5,31.8,30.49,NNW,329,6.0,9.0,90,0.00,,,0.00,meteohub,2013-01-17 12:30:00,
2013-01-17 04:35:00,34.3,31.6,30.49,NNW,338,6.0,9.0,90,0.00,,,0.00,meteohub,2013-01-17 12:35:00,
2013-01-17 04:41:00,34.3,31.6,30.48,North,0,5.0,8.0,90,0.00,,,0.00,meteohub,2013-01-17 12:41:00,
2013-01-17 04:46:00,34.5,31.8,30.48,NNW,338,6.0,8.0,90,0.00,,,0.00,meteohub,2013-01-17 12:46:00,
2013-01-17 04:51:00,34.5,31.8,30.48,NW,323,7.0,9.0,90,0.00,,,0.00,meteohub,2013-01-17 12:51:00,
2013-01-17 04:57:00,34.3,31.6,30.47,NNW,329,4.0,9.0,90,0.00,,,0.00,meteohub,2013-01-17 12:57:00,
2013-01-17 05:02:00,34.3,31.6,30.47,NNW,329,6.0,9.0,90,0.00,,,0.00,meteohub,2013-01-17 13:02:00,
2013-01-17 05:07:00,34.3,31.6,30.47,NNW,332,4.0,8.0,90,0.00,,,0.00,meteohub,2013-01-17 13:07:00,
2013-01-17 05:12:00,34.3,31.6,30.46,NNW,329,6.0,8.0,90,0.00,,,0.00,meteohub,2013-01-17 13:12:00,
2013-01-17 05:17:00,34.3,31.6,30.47,NNW,341,6.0,9.0,90,0.00,,,0.00,meteohub,2013-01-17 13:17:00,
2013-01-17 05:22:00,34.3,31.6,30.47,NW,306,4.0,9.0,90,0.00,,,0.00,meteohub,2013-01-17 13:22:00,
2013-01-17 05:27:00,34.2,31.5,30.46,NW,317,4.0,9.0,90,0.00,,,0.00,meteohub,2013-01-17 13:27:00,
2013-01-17 05:32:00,34.2,31.5,30.47,NNW,337,6.0,9.0,90,0.00,,,0.00,meteohub,2013-01-17 13:32:00,
2013-01-17 05:37:00,34.2,31.5,30.46,NNW,336,0.0,7.0,90,0.00,,,0.00,meteohub,2013-01-17 13:37:00,
2013-01-17 05:42:00,34.2,31.5,30.46,NW,319,5.0,7.0,90,0.00,,,0.00,meteohub,2013-01-17 13:42:00,
2013-01-17 05:47:00,34.2,31.5,30.46,NW,319,4.0,8.0,90,0.00,,,0.00,meteohub,2013-01-17 13:47:00,
2013-01-17 05:52:00,34.0,31.6,30.46,NNW,336,6.0,8.0,91,0.00,,,0.00,meteohub,2013-01-17 13:52:00,
2013-01-17 05:57:00,34.0,31.6,30.46,NW,325,6.0,8.0,91,0.00,,,0.00,meteohub,2013-01-17 13:57:00,
2013-01-17 06:02:00,34.0,31.6,30.45,NNW,344,6.0,8.0,91,0.00,,,0.00,meteohub,2013-01-17 14:02:00,
2013-01-17 06:07:00,34.0,31.6,30.45,NNW,346,5.0,8.0,91,0.00,,,0.00,meteohub,2013-01-17 14:07:00,
2013-01-17 06:12:00,33.8,31.5,30.46,NW,323,5.0,8.0,91,0.00,,,0.00,meteohub,2013-01-17 14:12:00,
2013-01-17 06:17:00,33.8,31.5,30.46,NNW,338,7.0,8.0,91,0.00,,,0.00,meteohub,2013-01-17 14:17:00,
2013-01-17 06:22:00,33.8,31.5,30.46,NW,322,5.0,9.0,91,0.00,,,0.00,meteohub,2013-01-17 14:22:00,
2013-01-17 06:27:00,33.6,31.3,30.45,NW,310,5.0,9.0,91,0.00,,,0.00,meteohub,2013-01-17 14:27:00,
2013-01-17 06:32:00,33.6,31.3,30.45,NNW,329,7.0,8.0,91,0.00,,,0.00,meteohub,2013-01-17 14:32:00,
2013-01-17 06:37:00,33.6,31.3,30.45,NW,324,7.0,8.0,91,0.00,,,0.00,meteohub,2013-01-17 14:37:00,
2013-01-17 06:42:00,33.6,31.3,30.45,North,349,4.0,8.0,91,0.00,,,0.00,meteohub,2013-01-17 14:42:00,
2013-01-17 06:47:00,33.6,31.3,30.45,NW,325,5.0,8.0,91,0.00,,,0.00,meteohub,2013-01-17 14:47:00,
2013-01-17 06:52:00,33.4,31.1,30.45,NNW,340,5.0,8.0,91,0.00,,,0.00,meteohub,2013-01-17 14:52:00,
2013-01-17 06:57:00,33.4,31.1,30.45,NNW,342,5.0,8.0,91,0.00,,,0.00,meteohub,2013-01-17 14:57:00,
2013-01-17 07:02:00,33.4,31.1,30.45,NNW,346,6.0,8.0,91,0.00,,,0.00,meteohub,2013-01-17 15:02:00,
2013-01-17 07:07:00,33.4,31.1,30.45,North,5,4.0,8.0,91,0.00,,,0.00,meteohub,2013-01-17 15:07:00,
2013-01-17 07:12:00,33.4,31.1,30.45,NNW,333,4.0,8.0,91,0.00,,,0.00,meteohub,2013-01-17 15:12:00,
2013-01-17 07:17:00,33.4,31.1,30.45,NNW,344,5.0,8.0,91,0.00,,,0.00,meteohub,2013-01-17 15:17:00,
2013-01-17 07:22:00,33.3,30.9,30.45,NW,325,4.0,7.0,91,0.00,,,0.00,meteohub,2013-01-17 15:22:00,
2013-01-17 07:27:00,33.3,30.9,30.45,NNW,338,4.0,7.0,91,0.00,,,0.00,meteohub,2013-01-17 15:27:00,
2013-01-17 07:32:00,33.3,30.9,30.44,NW,323,4.0,8.0,91,0.00,,,0.00,meteohub,2013-01-17 15:32:00,
2013-01-17 07:38:00,33.3,30.9,30.45,NNW,342,5.0,8.0,91,0.00,,,0.00,meteohub,2013-01-17 15:38:00,
2013-01-17 07:43:00,33.3,30.9,30.44,NW,324,2.0,7.0,91,0.00,,,0.00,meteohub,2013-01-17 15:43:00,
2013-01-17 07:48:00,33.3,31.1,30.45,NW,324,2.0,6.0,92,0.00,,,0.00,meteohub,2013-01-17 15:48:00,
2013-01-17 07:53:00,33.3,30.9,30.45,NNW,346,4.0,6.0,91,0.00,,,0.00,meteohub,2013-01-17 15:53:00,
2013-01-17 07:58:00,33.3,31.1,30.45,NNW,342,4.0,7.0,92,0.00,,,0.00,meteohub,2013-01-17 15:58:00,
2013-01-17 08:03:00,33.3,31.1,30.45,NW,319,1.0,8.0,92,0.00,,,0.00,meteohub,2013-01-17 16:03:00,
2013-01-17 08:08:00,33.3,31.1,30.45,NNW,340,2.0,8.0,92,0.00,,,0.00,meteohub,2013-01-17 16:08:00,
2013-01-17 08:13:00,33.3,31.1,30.45,NNE,28,2.0,6.0,92,0.00,,,0.00,meteohub,2013-01-17 16:13:00,
2013-01-17 08:18:00,33.4,31.3,30.45,North,11,4.0,5.0,92,0.00,,,0.00,meteohub,2013-01-17 16:18:00,
2013-01-17 08:23:00,33.3,31.1,30.46,NNW,346,2.0,6.0,92,0.00,,,0.00,meteohub,2013-01-17 16:23:00,
2013-01-17 08:29:00,33.3,31.1,30.45,North,355,2.0,6.0,92,0.00,,,0.00,meteohub,2013-01-17 16:29:00,
2013-01-17 08:34:00,33.3,31.1,30.46,North,0,2.0,6.0,92,0.00,,,0.00,meteohub,2013-01-17 16:34:00,
2013-01-17 08:39:00,33.3,31.1,30.46,North,9,4.0,6.0,92,0.00,,,0.00,meteohub,2013-01-17 16:39:00,
2013-01-17 08:44:00,33.3,31.1,30.46,NNE,14,5.0,6.0,92,0.00,,,0.00,meteohub,2013-01-17 16:44:00,
2013-01-17 08:49:00,33.3,31.1,30.46,NNW,347,5.0,7.0,92,0.00,,,0.00,meteohub,2013-01-17 16:49:00,
2013-01-17 08:54:00,33.3,31.1,30.46,NNE,23,5.0,7.0,92,0.00,,,0.00,meteohub,2013-01-17 16:54:00,
2013-01-17 08:59:00,33.4,31.3,30.46,North,9,3.0,7.0,92,0.00,,,0.00,meteohub,2013-01-17 16:59:00,
2013-01-17 09:04:00,33.4,31.3,30.46,NNE,22,5.0,8.0,92,0.00,,,0.00,meteohub,2013-01-17 17:04:00,
2013-01-17 09:09:00,33.4,31.3,30.46,North,0,3.0,9.0,92,0.00,,,0.00,meteohub,2013-01-17 17:09:00,
2013-01-17 09:14:00,33.3,31.1,30.46,NNE,29,4.0,9.0,92,0.00,,,0.00,meteohub,2013-01-17 17:14:00,
2013-01-17 09:20:00,33.4,31.3,30.46,NNE,15,6.0,9.0,92,0.00,,,0.00,meteohub,2013-01-17 17:20:00,
2013-01-17 09:25:00,33.4,31.3,30.47,NNE,29,5.0,8.0,92,0.00,,,0.00,meteohub,2013-01-17 17:25:00,
2013-01-17 09:30:00,33.4,31.3,30.47,NNW,348,6.0,7.0,92,0.00,,,0.00,meteohub,2013-01-17 17:30:00,
2013-01-17 09:35:00,33.4,31.3,30.47,NNE,26,3.0,7.0,92,0.00,,,0.00,meteohub,2013-01-17 17:35:00,
2013-01-17 09:40:00,33.6,31.5,30.46,North,9,3.0,7.0,92,0.00,,,0.00,meteohub,2013-01-17 17:40:00,
2013-01-17 09:45:00,33.6,31.5,30.46,North,11,2.0,7.0,92,0.00,,,0.00,meteohub,2013-01-17 17:45:00,
2013-01-17 09:50:00,33.6,31.5,30.46,NNW,330,2.0,6.0,92,0.00,,,0.00,meteohub,2013-01-17 17:50:00,
2013-01-17 09:55:00,33.8,32.0,30.46,NNW,342,5.0,6.0,93,0.00,,,0.00,meteohub,2013-01-17 17:55:00,
2013-01-17 10:00:00,33.8,31.6,30.47,NNW,337,7.0,7.0,92,0.00,,,0.00,meteohub,2013-01-17 18:00:00,
2013-01-17 10:06:00,33.8,31.6,30.47,NNE,13,4.0,8.0,92,0.00,,,0.00,meteohub,2013-01-17 18:06:00,
2013-01-17 10:11:00,34.0,31.8,30.47,NNE,33,5.0,8.0,92,0.00,,,0.00,meteohub,2013-01-17 18:11:00,
2013-01-17 10:16:00,34.3,32.5,30.46,NE,51,4.0,8.0,93,0.00,,,0.00,meteohub,2013-01-17 18:16:00,
2013-01-17 10:21:00,34.5,32.4,30.45,NNE,24,4.0,6.0,92,0.00,,,0.00,meteohub,2013-01-17 18:21:00,
2013-01-17 10:26:00,34.5,32.4,30.45,North,11,4.0,7.0,92,0.00,,,0.00,meteohub,2013-01-17 18:26:00,
2013-01-17 10:31:00,34.7,32.5,30.45,North,0,3.0,9.0,92,0.00,,,0.00,meteohub,2013-01-17 18:31:00,
2013-01-17 10:36:00,34.9,32.7,30.45,NNE,16,3.0,9.0,92,0.00,,,0.00,meteohub,2013-01-17 18:36:00,
2013-01-17 10:42:00,35.1,32.7,30.45,NNE,32,5.0,9.0,91,0.00,,,0.00,meteohub,2013-01-17 18:42:00,
2013-01-17 10:47:00,34.9,32.5,30.45,NNE,27,5.0,9.0,91,0.00,,,0.00,meteohub,2013-01-17 18:47:00,
2013-01-17 10:52:00,35.1,32.7,30.45,NNE,21,5.0,9.0,91,0.00,,,0.00,meteohub,2013-01-17 18:52:00,
2013-01-17 10:57:00,35.1,32.7,30.45,NNE,17,5.0,9.0,91,0.00,,,0.00,meteohub,2013-01-17 18:57:00,
2013-01-17 11:02:00,35.1,32.7,30.45,NNE,17,6.0,9.0,91,0.00,,,0.00,meteohub,2013-01-17 19:02:00,
2013-01-17 11:07:00,34.9,32.5,30.45,NNE,25,3.0,9.0,91,0.00,,,0.00,meteohub,2013-01-17 19:07:00,
2013-01-17 11:12:00,35.1,32.7,30.45,NNE,27,4.0,8.0,91,0.00,,,0.00,meteohub,2013-01-17 19:12:00,
2013-01-17 11:17:00,35.1,32.7,30.45,NNE,28,4.0,8.0,91,0.00,,,0.00,meteohub,2013-01-17 19:17:00,
2013-01-17 11:22:00,35.1,32.7,30.45,NE,46,6.0,8.0,91,0.00,,,0.00,meteohub,2013-01-17 19:22:00,
2013-01-17 11:27:00,35.1,32.7,30.44,NE,43,5.0,8.0,91,0.00,,,0.00,meteohub,2013-01-17 19:27:00,
2013-01-17 11:32:00,35.2,32.9,30.44,NE,54,3.0,8.0,91,0.00,,,0.00,meteohub,2013-01-17 19:32:00,
2013-01-17 11:37:00,35.4,33.1,30.43,NNE,17,4.0,8.0,91,0.00,,,0.00,meteohub,2013-01-17 19:37:00,
2013-01-17 11:42:00,35.4,33.1,30.43,NNE,18,3.0,6.0,91,0.00,,,0.00,meteohub,2013-01-17 19:42:00,
2013-01-17 11:48:00,35.4,33.1,30.43,NNE,28,5.0,7.0,91,0.00,,,0.00,meteohub,2013-01-17 19:48:00,
2013-01-17 11:53:00,35.2,32.9,30.43,NNE,16,4.0,7.0,91,0.00,,,0.00,meteohub,2013-01-17 19:53:00,
2013-01-17 11:58:00,35.2,32.9,30.42,NE,35,4.0,8.0,91,0.00,,,0.00,meteohub,2013-01-17 19:58:00,
2013-01-17 12:03:00,35.4,33.1,30.42,NE,36,4.0,8.0,91,0.00,,,0.00,meteohub,2013-01-17 20:03:00,
2013-01-17 12:08:00,35.8,33.4,30.42,NNE,32,4.0,8.0,91,0.00,,,0.00,meteohub,2013-01-17 20:08:00,
2013-01-17 12:13:00,35.8,33.4,30.42,NNE,28,4.0,6.0,91,0.00,,,0.00,meteohub,2013-01-17 20:13:00,
2013-01-17 12:18:00,35.8,33.4,30.42,North,9,2.0,7.0,91,0.00,,,0.00,meteohub,2013-01-17 20:18:00,
2013-01-17 12:23:00,36.0,33.6,30.42,NE,37,5.0,7.0,91,0.00,,,0.00,meteohub,2013-01-17 20:23:00,
2013-01-17 12:29:00,36.0,33.3,30.41,NNE,27,2.0,6.0,90,0.00,,,0.00,meteohub,2013-01-17 20:29:00,
2013-01-17 12:34:00,36.1,33.4,30.41,NE,36,3.0,6.0,90,0.00,,,0.00,meteohub,2013-01-17 20:34:00,
2013-01-17 12:39:00,36.3,34.0,30.40,NNE,24,5.0,6.0,91,0.00,,,0.00,meteohub,2013-01-17 20:39:00,
2013-01-17 12:44:00,36.7,34.0,30.39,NNE,30,4.0,6.0,90,0.00,,,0.00,meteohub,2013-01-17 20:44:00,
2013-01-17 12:49:00,36.9,34.2,30.39,NNE,32,4.0,6.0,90,0.00,,,0.00,meteohub,2013-01-17 20:49:00,
2013-01-17 12:54:00,37.0,34.3,30.39,NE,36,2.0,6.0,90,0.00,,,0.00,meteohub,2013-01-17 20:54:00,
2013-01-17 12:59:00,37.0,34.2,30.38,NE,36,3.0,6.0,89,0.00,,,0.00,meteohub,2013-01-17 20:59:00,
2013-01-17 13:05:00,37.2,34.3,30.38,NE,36,3.0,6.0,89,0.00,,,0.00,meteohub,2013-01-17 21:05:00,
2013-01-17 13:10:00,37.6,34.7,30.37,NE,35,3.0,6.0,89,0.00,,,0.00,meteohub,2013-01-17 21:10:00,
2013-01-17 13:15:00,37.8,34.9,30.36,NE,35,1.0,5.0,89,0.00,,,0.00,meteohub,2013-01-17 21:15:00,
2013-01-17 13:20:00,37.9,34.7,30.36,NE,35,0.0,5.0,88,0.00,,,0.00,meteohub,2013-01-17 21:20:00,
2013-01-17 13:25:00,38.1,34.9,30.36,NE,35,0.0,3.0,88,0.00,,,0.00,meteohub,2013-01-17 21:25:00,
2013-01-17 13:30:00,38.3,35.1,30.35,NE,35,2.0,2.0,88,0.00,,,0.00,meteohub,2013-01-17 21:30:00,
2013-01-17 13:35:00,38.5,34.9,30.35,NE,35,0.0,3.0,87,0.00,,,0.00,meteohub,2013-01-17 21:35:00,
2013-01-17 13:40:00,38.7,34.9,30.35,NE,35,3.0,3.0,86,0.00,,,0.00,meteohub,2013-01-17 21:40:00,
2013-01-17 13:45:00,38.7,34.9,30.35,NE,35,3.0,5.0,86,0.00,,,0.00,meteohub,2013-01-17 21:45:00,
2013-01-17 13:50:00,38.7,34.5,30.35,NE,35,1.0,5.0,85,0.00,,,0.00,meteohub,2013-01-17 21:50:00,
2013-01-17 13:55:00,38.8,34.7,30.34,NE,35,2.0,5.0,85,0.00,,,0.00,meteohub,2013-01-17 21:55:00,
2013-01-17 14:01:00,38.8,34.3,30.34,NE,35,1.0,4.0,84,0.00,,,0.00,meteohub,2013-01-17 22:01:00,
2013-01-17 14:06:00,39.0,34.5,30.33,NE,35,0.0,3.0,84,0.00,,,0.00,meteohub,2013-01-17 22:06:00,
2013-01-17 14:11:00,39.4,34.9,30.33,NE,35,2.0,3.0,84,0.00,,,0.00,meteohub,2013-01-17 22:11:00,
2013-01-17 14:16:00,39.4,34.9,30.32,North,10,3.0,4.0,84,0.00,,,0.00,meteohub,2013-01-17 22:16:00,
2013-01-17 14:21:00,39.6,35.1,30.33,NNE,24,2.0,4.0,84,0.00,,,0.00,meteohub,2013-01-17 22:21:00,
2013-01-17 14:26:00,39.6,35.1,30.32,North,355,4.0,4.0,84,0.00,,,0.00,meteohub,2013-01-17 22:26:00,
2013-01-17 14:31:00,39.6,35.1,30.32,North,355,2.0,6.0,84,0.00,,,0.00,meteohub,2013-01-17 22:31:00,
2013-01-17 14:36:00,39.4,35.2,30.32,North,355,0.0,6.0,85,0.00,,,0.00,meteohub,2013-01-17 22:36:00,
2013-01-17 14:41:00,39.0,34.9,30.32,North,355,0.0,6.0,85,0.00,,,0.00,meteohub,2013-01-17 22:41:00,
2013-01-17 14:46:00,39.0,35.2,30.32,North,355,0.0,4.0,86,0.00,,,0.00,meteohub,2013-01-17 22:46:00,
2013-01-17 14:52:00,39.0,35.2,30.32,North,355,0.0,4.0,86,0.00,,,0.00,meteohub,2013-01-17 22:52:00,
2013-01-17 14:57:00,38.8,35.1,30.32,North,355,0.0,4.0,86,0.00,,,0.00,meteohub,2013-01-17 22:57:00,
2013-01-17 15:02:00,38.8,35.1,30.32,North,355,2.0,2.0,86,0.00,,,0.00,meteohub,2013-01-17 23:02:00,
2013-01-17 15:07:00,38.8,35.2,30.32,North,355,0.0,4.0,87,0.00,,,0.00,meteohub,2013-01-17 23:07:00,
2013-01-17 15:12:00,38.8,35.2,30.31,North,355,0.0,4.0,87,0.00,,,0.00,meteohub,2013-01-17 23:12:00,
2013-01-17 15:17:00,38.7,35.1,30.31,North,355,0.0,4.0,87,0.00,,,0.00,meteohub,2013-01-17 23:17:00,
2013-01-17 15:22:00,38.7,35.1,30.31,North,355,0.0,2.0,87,0.00,,,0.00,meteohub,2013-01-17 23:22:00,
2013-01-17 15:27:00,38.7,35.1,30.31,North,355,2.0,2.0,87,0.00,,,0.00,meteohub,2013-01-17 23:27:00,
2013-01-17 15:32:00,38.5,34.9,30.31,North,355,0.0,5.0,87,0.00,,,0.00,meteohub,2013-01-17 23:32:00,
2013-01-17 15:37:00,38.5,34.9,30.31,North,355,0.0,5.0,87,0.00,,,0.00,meteohub,2013-01-17 23:37:00,
2013-01-17 15:42:00,38.3,34.7,30.31,North,355,0.0,5.0,87,0.00,,,0.00,meteohub,2013-01-17 23:42:00,
2013-01-17 15:48:00,38.1,34.5,30.31,North,355,0.0,2.0,87,0.00,,,0.00,meteohub,2013-01-17 23:48:00,
2013-01-17 15:53:00,37.9,34.7,30.30,North,355,0.0,2.0,88,0.00,,,0.00,meteohub,2013-01-17 23:53:00,
2013-01-17 15:58:00,37.9,34.7,30.31,North,355,0.0,2.0,88,0.00,,,0.00,meteohub,2013-01-17 23:58:00,
2013-01-17 16:03:00,37.9,34.7,30.31,North,355,0.0,1.0,88,0.00,,,0.00,meteohub,2013-01-18 00:03:00,
2013-01-17 16:08:00,37.8,34.5,30.31,North,355,0.0,1.0,88,0.00,,,0.00,meteohub,2013-01-18 00:08:00,
2013-01-17 16:13:00,37.8,34.5,30.31,North,355,0.0,1.0,88,0.00,,,0.00,meteohub,2013-01-18 00:13:00,
2013-01-17 16:18:00,37.8,34.9,30.31,North,355,0.0,1.0,89,0.00,,,0.00,meteohub,2013-01-18 00:18:00,
2013-01-17 16:23:00,37.6,34.3,30.31,North,355,0.0,0.0,88,0.00,,,0.00,meteohub,2013-01-18 00:23:00,
2013-01-17 16:28:00,37.6,34.7,30.31,North,355,0.0,0.0,89,0.00,,,0.00,meteohub,2013-01-18 00:28:00,
2013-01-17 16:34:00,37.6,34.7,30.31,North,355,0.0,0.0,89,0.00,,,0.00,meteohub,2013-01-18 00:34:00,
2013-01-17 16:39:00,37.2,34.3,30.32,North,355,0.0,1.0,89,0.00,,,0.00,meteohub,2013-01-18 00:39:00,
2013-01-17 16:44:00,37.0,34.2,30.32,North,355,0.0,1.0,89,0.00,,,0.00,meteohub,2013-01-18 00:44:00,
2013-01-17 16:49:00,36.9,34.0,30.32,North,355,0.0,1.0,89,0.00,,,0.00,meteohub,2013-01-18 00:49:00,
2013-01-17 16:54:00,36.9,34.0,30.32,North,355,0.0,1.0,89,0.00,,,0.00,meteohub,2013-01-18 00:54:00,
2013-01-17 16:59:00,36.7,34.0,30.32,North,355,0.0,1.0,90,0.00,,,0.00,meteohub,2013-01-18 00:59:00,
2013-01-17 17:04:00,36.7,34.0,30.32,North,355,0.0,1.0,90,0.00,,,0.00,meteohub,2013-01-18 01:04:00,
2013-01-17 17:09:00,36.5,33.8,30.32,North,355,0.0,1.0,90,0.00,,,0.00,meteohub,2013-01-18 01:09:00,
2013-01-17 17:15:00,36.3,33.6,30.32,North,355,0.0,1.0,90,0.00,,,0.00,meteohub,2013-01-18 01:15:00,
2013-01-17 17:20:00,36.1,33.4,30.32,North,355,1.0,1.0,90,0.00,,,0.00,meteohub,2013-01-18 01:20:00,
2013-01-17 17:25:00,36.0,33.3,30.32,North,355,0.0,1.0,90,0.00,,,0.00,meteohub,2013-01-18 01:25:00,
2013-01-17 17:30:00,35.8,33.1,30.32,North,355,0.0,2.0,90,0.00,,,0.00,meteohub,2013-01-18 01:30:00,
2013-01-17 17:35:00,35.6,32.9,30.32,North,355,0.0,2.0,90,0.00,,,0.00,meteohub,2013-01-18 01:35:00,
2013-01-17 17:40:00,35.4,32.7,30.32,North,355,0.0,1.0,90,0.00,,,0.00,meteohub,2013-01-18 01:40:00,
2013-01-17 17:45:00,35.4,32.7,30.32,North,355,0.0,2.0,90,0.00,,,0.00,meteohub,2013-01-18 01:45:00,
2013-01-17 17:50:00,35.2,32.9,30.32,North,355,0.0,2.0,91,0.00,,,0.00,meteohub,2013-01-18 01:50:00,
2013-01-17 17:55:00,35.1,32.7,30.32,North,355,1.0,2.0,91,0.00,,,0.00,meteohub,2013-01-18 01:55:00,
2013-01-17 18:00:00,34.9,32.5,30.32,North,355,0.0,2.0,91,0.00,,,0.00,meteohub,2013-01-18 02:00:00,
2013-01-17 18:06:00,34.9,32.5,30.31,North,355,0.0,2.0,91,0.00,,,0.00,meteohub,2013-01-18 02:06:00,
2013-01-17 18:11:00,34.7,32.4,30.31,North,355,0.0,2.0,91,0.00,,,0.00,meteohub,2013-01-18 02:11:00,
2013-01-17 18:16:00,34.5,32.2,30.31,North,355,0.0,2.0,91,0.00,,,0.00,meteohub,2013-01-18 02:16:00,
2013-01-17 18:21:00,34.5,32.2,30.31,North,355,0.0,1.0,91,0.00,,,0.00,meteohub,2013-01-18 02:21:00,
2013-01-17 18:26:00,34.3,32.2,30.31,North,355,0.0,1.0,92,0.00,,,0.00,meteohub,2013-01-18 02:26:00,
2013-01-17 18:31:00,34.3,32.2,30.31,North,355,0.0,2.0,92,0.00,,,0.00,meteohub,2013-01-18 02:31:00,
2013-01-17 18:36:00,34.3,32.2,30.31,North,355,0.0,2.0,92,0.00,,,0.00,meteohub,2013-01-18 02:36:00,
2013-01-17 18:41:00,34.3,32.0,30.32,North,355,0.0,4.0,91,0.00,,,0.00,meteohub,2013-01-18 02:41:00,
2013-01-17 18:46:00,34.2,31.8,30.31,North,355,0.0,4.0,91,0.00,,,0.00,meteohub,2013-01-18 02:46:00,
2013-01-17 18:51:00,34.0,31.8,30.31,North,355,0.0,4.0,92,0.00,,,0.00,meteohub,2013-01-18 02:51:00,
2013-01-17 18:57:00,33.8,31.6,30.32,North,355,0.0,2.0,92,0.00,,,0.00,meteohub,2013-01-18 02:57:00,
2013-01-17 19:02:00,33.6,31.5,30.31,North,355,0.0,2.0,92,0.00,,,0.00,meteohub,2013-01-18 03:02:00,
2013-01-17 19:07:00,33.6,31.5,30.31,North,355,2.0,2.0,92,0.00,,,0.00,meteohub,2013-01-18 03:07:00,
2013-01-17 19:12:00,33.6,31.5,30.31,NNW,346,2.0,4.0,92,0.00,,,0.00,meteohub,2013-01-18 03:12:00,
2013-01-17 19:17:00,33.4,31.3,30.31,NNW,346,1.0,6.0,92,0.00,,,0.00,meteohub,2013-01-18 03:17:00,
2013-01-17 19:22:00,33.4,31.3,30.31,NNW,346,0.0,6.0,92,0.00,,,0.00,meteohub,2013-01-18 03:22:00,
2013-01-17 19:27:00,33.4,31.3,30.31,NNW,346,0.0,6.0,92,0.00,,,0.00,meteohub,2013-01-18 03:27:00,
2013-01-17 19:32:00,33.3,31.1,30.31,NNW,346,1.0,4.0,92,0.00,,,0.00,meteohub,2013-01-18 03:32:00,
2013-01-17 19:37:00,33.3,31.1,30.31,NNW,346,0.0,1.0,92,0.00,,,0.00,meteohub,2013-01-18 03:37:00,
2013-01-17 19:42:00,33.3,31.1,30.31,NNW,346,0.0,2.0,92,0.00,,,0.00,meteohub,2013-01-18 03:42:00,
2013-01-17 19:47:00,33.3,31.1,30.31,NNW,346,0.0,2.0,92,0.00,,,0.00,meteohub,2013-01-18 03:47:00,
2013-01-17 19:53:00,33.1,31.1,30.31,NNW,346,0.0,2.0,92,0.00,,,0.00,meteohub,2013-01-18 03:53:00,
2013-01-17 19:58:00,33.1,31.1,30.31,NNW,333,0.0,1.0,92,0.00,,,0.00,meteohub,2013-01-18 03:58:00,
2013-01-17 20:03:00,32.9,30.9,30.31,NNW,333,0.0,5.0,92,0.00,,,0.00,meteohub,2013-01-18 04:03:00,
2013-01-17 20:08:00,32.9,30.9,30.31,NNW,333,0.0,5.0,92,0.00,,,0.00,meteohub,2013-01-18 04:08:00,
2013-01-17 20:13:00,32.7,30.7,30.31,NNW,333,4.0,5.0,92,0.00,,,0.00,meteohub,2013-01-18 04:13:00,
2013-01-17 20:18:00,32.7,30.9,30.31,NNW,333,0.0,4.0,93,0.00,,,0.00,meteohub,2013-01-18 04:18:00,
2013-01-17 20:23:00,32.9,31.1,30.30,NNW,333,0.0,4.0,93,0.00,,,0.00,meteohub,2013-01-18 04:23:00,
2013-01-17 20:29:00,32.7,30.7,30.30,NNW,333,1.0,4.0,92,0.00,,,0.00,meteohub,2013-01-18 04:29:00,
2013-01-17 20:34:00,32.7,30.9,30.31,NNW,333,0.0,4.0,93,0.00,,,0.00,meteohub,2013-01-18 04:34:00,
2013-01-17 20:39:00,32.7,30.9,30.30,NNW,333,0.0,4.0,93,0.00,,,0.00,meteohub,2013-01-18 04:39:00,
2013-01-17 20:44:00,32.5,30.7,30.30,NNW,333,1.0,4.0,93,0.00,,,0.00,meteohub,2013-01-18 04:44:00,
2013-01-17 20:49:00,32.5,30.7,30.30,NNW,333,0.0,4.0,93,0.00,,,0.00,meteohub,2013-01-18 04:49:00,
2013-01-17 20:54:00,32.5,30.7,30.31,NNW,333,0.0,4.0,93,0.00,,,0.00,meteohub,2013-01-18 04:54:00,
2013-01-17 20:59:00,32.4,30.6,30.30,NNW,333,0.0,4.0,93,0.00,,,0.00,meteohub,2013-01-18 04:59:00,
2013-01-17 21:03:00,32.4,30.6,30.31,NNW,333,0.0,4.0,93,0.00,,,0.00,meteohub,2013-01-18 05:03:00,
2013-01-17 21:04:00,32.4,30.6,30.30,NNW,333,0.0,4.0,93,0.00,,,0.00,meteohub,2013-01-18 05:04:00,
2013-01-17 21:05:00,32.4,30.6,30.30,NNW,333,0.0,4.0,93,0.00,,,0.00,meteohub,2013-01-18 05:05:00,
2013-01-17 21:11:00,32.4,30.6,30.30,NNW,333,0.0,4.0,93,0.00,,,0.00,meteohub,2013-01-18 05:11:00,
2013-01-17 21:16:00,32.4,30.6,30.30,NNW,333,2.0,2.0,93,0.00,,,0.00,meteohub,2013-01-18 05:16:00,
2013-01-17 21:21:00,32.5,30.7,30.30,NNW,333,0.0,4.0,93,0.00,,,0.00,meteohub,2013-01-18 05:21:00,
2013-01-17 21:26:00,32.4,30.6,30.30,NNW,333,0.0,4.0,93,0.00,,,0.00,meteohub,2013-01-18 05:26:00,
2013-01-17 21:31:00,32.4,30.6,30.30,NNW,332,0.0,4.0,93,0.00,,,0.00,meteohub,2013-01-18 05:31:00,
2013-01-17 21:36:00,32.4,30.6,30.30,NNW,332,0.0,2.0,93,0.00,,,0.00,meteohub,2013-01-18 05:36:00,
2013-01-17 21:41:00,32.4,30.6,30.30,NNW,332,0.0,2.0,93,0.00,,,0.00,meteohub,2013-01-18 05:41:00,
2013-01-17 21:46:00,32.4,30.6,30.30,NNW,332,0.0,2.0,93,0.00,,,0.00,meteohub,2013-01-18 05:46:00,
2013-01-17 21:52:00,32.4,30.6,30.31,NNW,331,0.0,2.0,93,0.00,,,0.00,meteohub,2013-01-18 05:52:00,
2013-01-17 21:57:00,32.4,30.6,30.31,NNW,331,0.0,4.0,93,0.00,,,0.00,meteohub,2013-01-18 05:57:00,
2013-01-17 22:02:00,32.4,30.6,30.31,NNW,331,0.0,4.0,93,0.00,,,0.00,meteohub,2013-01-18 06:02:00,
2013-01-17 22:07:00,32.4,30.6,30.31,NNW,331,0.0,2.0,93,0.00,,,0.00,meteohub,2013-01-18 06:07:00,
2013-01-17 22:12:00,32.4,30.6,30.31,NNW,331,0.0,2.0,93,0.00,,,0.00,meteohub,2013-01-18 06:12:00,
2013-01-17 22:17:00,32.4,30.6,30.30,NNW,331,1.0,2.0,93,0.00,,,0.00,meteohub,2013-01-18 06:17:00,
2013-01-17 22:22:00,32.4,30.6,30.30,NW,321,0.0,4.0,93,0.00,,,0.00,meteohub,2013-01-18 06:22:00,
2013-01-17 22:27:00,32.4,30.6,30.30,NW,321,0.0,4.0,93,0.00,,,0.00,meteohub,2013-01-18 06:27:00,
2013-01-17 22:32:00,32.2,30.4,30.30,NW,321,0.0,4.0,93,0.00,,,0.00,meteohub,2013-01-18 06:32:00,
2013-01-17 22:37:00,32.2,30.4,30.30,NW,321,0.0,4.0,93,0.00,,,0.00,meteohub,2013-01-18 06:37:00,
2013-01-17 22:42:00,32.2,30.4,30.30,NW,321,2.0,4.0,93,0.00,,,0.00,meteohub,2013-01-18 06:42:00,
2013-01-17 22:47:00,32.4,30.6,30.30,NW,321,0.0,4.0,93,0.00,,,0.00,meteohub,2013-01-18 06:47:00,
2013-01-17 22:52:00,32.4,30.6,30.30,NW,321,0.0,4.0,93,0.00,,,0.00,meteohub,2013-01-18 06:52:00,
2013-01-17 22:57:00,32.4,30.6,30.30,NW,321,0.0,4.0,93,0.00,,,0.00,meteohub,2013-01-18 06:57:00,
2013-01-17 23:02:00,32.4,30.6,30.30,NW,321,2.0,2.0,93,0.00,,,0.00,meteohub,2013-01-18 07:02:00,
2013-01-17 23:07:00,32.4,30.6,30.30,NW,321,0.0,2.0,93,0.00,,,0.00,meteohub,2013-01-18 07:07:00,
2013-01-17 23:12:00,32.4,30.6,30.30,NW,321,2.0,2.0,93,0.00,,,0.00,meteohub,2013-01-18 07:12:00,
2013-01-17 23:17:00,32.4,30.6,30.30,NNW,330,4.0,4.0,93,0.00,,,0.00,meteohub,2013-01-18 07:17:00,
2013-01-17 23:22:00,32.4,30.6,30.30,North,350,0.0,6.0,93,0.00,,,0.00,meteohub,2013-01-18 07:22:00,
2013-01-17 23:27:00,32.4,30.6,30.30,NNW,340,4.0,6.0,93,0.00,,,0.00,meteohub,2013-01-18 07:27:00,
2013-01-17 23:32:00,32.4,30.6,30.30,NNW,340,0.0,5.0,93,0.00,,,0.00,meteohub,2013-01-18 07:32:00,
2013-01-17 23:37:00,32.4,30.6,30.29,NNW,340,2.0,4.0,93,0.00,,,0.00,meteohub,2013-01-18 07:37:00,
2013-01-17 23:42:00,32.4,30.6,30.29,NNW,340,0.0,4.0,93,0.00,,,0.00,meteohub,2013-01-18 07:42:00,
2013-01-17 23:47:00,32.4,30.6,30.29,NNW,340,2.0,4.0,93,0.00,,,0.00,meteohub,2013-01-18 07:47:00,
2013-01-17 23:52:00,32.4,30.6,30.29,NNW,340,1.0,4.0,93,0.00,,,0.00,meteohub,2013-01-18 07:52:00,
2013-01-17 23:57:00,32.2,30.4,30.29,NNW,340,1.0,4.0,93,0.00,,,0.00,meteohub,2013-01-18 07:57:00,